Location: Eldred Sherwood Park Lake Dam
(42.9416°N, 93.5655°W)
Time: 13:23:44
(UTC+00:00)

Explorer 11/Cluster Stage 4 - Pass Details

Date: 13 December 2025
Orbit: 463 x 1180 km, 28.8° (Epoch: 13 January)

Event Time Altitude Azimuth Distance (km) Brightness Sun altitude
Rises 01:09:19 0° 224° (SW) 3,968 10.9 -26.4°
Reaches altitude 10° 01:13:15 10° 207° (SSW) 2,920 9.9 -27.1°
Maximum altitude 01:17:44 18° 168° (SSE) 2,270 8.8 -27.9°
Enters shadow 01:18:19 17° 162° (SSE) 2,262 8.8 -28.0°
